Location: Miles
(41.4492°N, 81.6087°W)
Time: 15:28:31
(UTC+00:00)

A-11 Canister half - Pass Details

Date: 13 September 2024
Orbit: 1515 x 1685 km, 47.2° (Epoch: 14 October)

Event Time Altitude Azimuth Distance (km) Brightness Sun altitude
Rises 05:38:06 0° 294° (WNW) 4,662 11.7 -44.8°
Reaches altitude 10° 05:41:08 10° 295° (WNW) 3,677 11.1 -44.8°
Enters shadow 05:43:43 22° 296° (WNW) 2,863 10.4 -44.7°
